Vertical_Velocity
-3 -3 -2 -2 0 1 -0 0 0 -0 0 -0 -0 0 -0 1 1 -5 -3 -1 -8 1 -3 0 3 2 -1 -1 1 0 -20 -0 3 4 21 6 0 3 1 -0 -3 1 5 5 -5
-1 -0 -1 -0 2 1 -1 -1 -2 -1 -0 -0 1 2 3 4 -0 -5 -4 -6 7 -5 5 -0 7 -1 -6 4 -7 -14 -9 13 13 7 12 2 0 -3 -2 -0 -3 -1 1 -1 -3
-0 0 1 2 3 -0 -2 -3 -2 -1 -1 0 3 3 5 5 1 -9 -2 0 12 1 10 -4 0 -4 -5 5 -8 -1 -3 18 8 2 5 -4 3 -4 -2 -8 2 10 8 3 2
-1 -1 -2 1 1 -4 -4 0 2 2 -1 0 0 1 3 9 -7 -4 3 5 11 10 3 3 -0 -5 -2 -5 7 -11 3 12 12 0 -1 1 3 -1 -5 6 1 1 2 0 2
-2 -2 -2 -1 2 -3 -1 -3 -4 0 -4 -3 -2 -1 2 7 0 -4 4 10 8 9 12 8 -1 3 -6 8 10 -9 6 12 6 -2 1 -4 3 -8 6 -4 2 -0 -1 -2 -2
-1 -4 -6 -4 0 -2 -4 -3 -4 -8 -6 -7 -3 -1 4 14 14 10 12 12 10 9 9 10 5 11 -4 -4 -2 10 9 14 3 5 -1 -3 2 -13 6 1 5 2 6 2 -0
-0 -4 -7 -5 -4 1 1 -8 -3 -12 -7 -7 2 0 -1 -2 -0 4 1 -1 9 7 15 12 9 3 15 8 8 3 0 4 -3 4 -4 13 -19 -13 4 1 1 4 5 1 2
-0 -2 -4 -4 -8 -6 -8 -3 -18 -14 -9 -2 -3 1 -0 3 -1 1 -1 4 -2 3 3 8 13 2 1 6 4 -1 -1 -11 31 9 3 -4 22 11 1 2 1 5 2 2 1
-2 -3 -0 -3 -10 -11 -7 -14 -8 -7 -0 -4 -5 -7 -3 1 1 -1 -4 6 -0 0 4 11 7 5 8 -2 5 -8 -12 -4 17 4 -5 -24 26 14 -2 3 4 4 4 1 1
-5 -1 -2 -3 -5 -7 -17 -14 -12 -7 -13 -8 -3 -17 -0 3 4 4 -2 -5 5 3 2 7 -3 4 9 -1 -43 -3 5 11 7 9 -4 -3 8 18 5 5 10 5 5 4 -6
-3 -3 -5 -7 -5 -5 -12 -7 -10 -6 6 2 -6 -7 -5 -1 -12 -2 -4 1 -1 -1 6 3 3 -11 36 19 17 6 0 9 12 17 -5 1 4 29 3 1 0 -1 3 4 4
-4 -5 -7 -8 -8 -13 -10 -7 0 1 -7 -8 -8 -6 -11 -12 3 -0 -6 -0 -1 -3 -0 1 7 -5 1 -3 1 3 2 3 -3 15 -3 2 8 16 6 -1 4 5 4 3 4
-3 -5 -7 -6 -10 -12 -2 -7 -4 -4 -1 -2 -2 -3 1 -2 -9 -1 1 -6 -1 -4 -3 3 3 0 3 2 1 2 -6 2 8 14 3 11 1 0 -4 -8 2 -1 2 -3 4
-5 -2 -1 -5 -3 -3 -5 -6 -5 -6 -1 1 5 -8 -4 0 -6 -8 -3 -4 -8 -2 -4 1 1 4 0 6 4 14 7 5 11 0 -5 10 -9 1 4 1 1 4 3 1 1
-8 -7 -11 -5 -9 -6 -10 -5 -6 -5 -6 -4 -6 -5 -16 -16 -8 -4 -7 3 -5 -5 -3 -4 5 4 2 3 -0 -4 5 5 7 2 6 -4 6 3 14 -2 -6 3 1 2 4
0 -1 -3 -14 -1 -4 -2 -3 -4 -2 -10 3 -3 -2 -0 -6 -2 -1 -5 -0 -2 -10 -6 -0 -0 1 7 9 5 4 12 14 7 9 -13 -5 -5 9 0 -3 6 -2 1 1 0
-3 -0 1 1 3 -3 -6 -2 -6 -4 -1 -8 -2 -3 -6 -6 -0 -8 -8 -4 -2 5 -5 -2 -0 0 4 9 4 4 12 5 17 2 -23 -5 9 3 5 10 8 1 5 2 3
-4 -4 -4 -2 -9 -7 -2 -4 -0 6 5 6 1 1 -7 -5 2 -5 0 -5 -2 -3 -7 -1 -1 1 -1 0 8 3 10 2 1 -5 -18 9 -11 -4 -8 7 5 6 -4 3 4
-3 -3 -1 -2 -2 -0 -2 -5 3 -2 -4 -6 4 -2 4 0 -7 0 -4 -7 -7 4 -5 -1 -0 1 -3 2 8 18 12 5 -3 -0 25 6 -24 10 1 4 4 -0 -0 -0 -1
-2 -2 1 0 -1 -2 -7 1 -3 -1 -1 -4 -7 -5 -9 -3 -0 0 -3 1 -4 -6 -5 -2 2 1 2 -3 3 7 12 14 2 -1 20 -9 -4 -11 -2 0 2 5 5 2 2
-3 -2 -3 -1 -2 -5 4 -4 -4 -4 -3 -5 -3 -0 -0 -5 -2 -1 2 -0 -0 -3 -3 -2 -0 1 2 -6 1 3 -1 9 9 4 -11 14 -11 -5 -2 -3 2 5 4 1 0
-1 -3 -4 -2 -2 -3 -5 -7 0 -2 -2 -4 -1 -1 -1 -0 1 -1 -3 0 -2 -1 1 -0 0 1 1 -1 -6 3 -1 5 11 12 -1 14 6 -7 -1 0 -2 0 3 2 3
0 1 0 -0 -3 -3 -7 -8 -1 -1 -2 -3 -1 2 1 -4 -5 -2 -0 -2 -1 -0 1 -1 -1 0 1 3 -4 -3 2 1 6 8 4 9 4 3 2 -3 -3 -3 1 3 4
-4 -4 1 0 -4 -2 0 -2 -0 -2 2 -2 -7 1 6 4 0 0 0 3 -1 -1 -1 0 -1 -0 -0 2 -2 -1 3 4 4 10 10 -4 2 3 15 5 6 -0 -0 2 2
-3 -3 -2 -2 -2 -4 -3 -4 -3 2 -4 -0 -5 -7 -5 -0 3 1 1 -4 -0 -2 -1 -1 -1 -0 -1 0 1 2 -1 4 0 -1 0 3 -0 1 3 11 8 4 5 2 3
-6 -5 -4 -4 -2 -4 -4 -1 -2 -3 -2 -1 0 -3 -1 -2 -2 0 -0 -1 -2 -1 -1 -1 -1 -0 0 -2 -1 1 0 -4 6 -5 0 -2 8 6 0 -0 6 9 6 3 4
-2 2 -2 -5 -4 -2 -6 -5 -4 -0 -4 -3 -5 -4 1 2 -1 -1 -1 -1 -1 -1 -2 -2 -1 -1 -1 -0 0 0 1 2 -2 2 -0 -1 -2 6 4 3 -1 1 5 4 1
Height
5789 5786 5783 5779 5776 5772 5768 5763 5758 5754 5750 5745 5741 5737 5733 5731 5729 5726 5724 5725 5723 5723 5723 5724 5726 5727 5729 5732 5735 5739 5738 5742 5755 5765 5774 5776 5779 5782 5786 5788 5791 5798 5804 5809 5811
5785 5782 5778 5774 5770 5765 5760 5755 5749 5744 5739 5733 5728 5723 5719 5715 5712 5709 5707 5707 5710 5709 5711 5710 5712 5713 5715 5719 5721 5724 5727 5737 5751 5757 5762 5766 5768 5771 5776 5781 5785 5792 5797 5802 5805
5781 5777 5773 5769 5764 5758 5751 5745 5738 5732 5725 5718 5712 5706 5700 5696 5690 5687 5686 5688 5693 5694 5693 5694 5695 5698 5700 5704 5708 5713 5717 5730 5738 5744 5749 5754 5758 5761 5767 5772 5781 5788 5791 5796 5800
5777 5772 5767 5761 5755 5748 5741 5734 5725 5717 5709 5700 5691 5683 5677 5671 5665 5663 5666 5668 5670 5674 5675 5676 5678 5681 5685 5689 5696 5700 5706 5714 5725 5731 5736 5741 5746 5752 5757 5766 5772 5777 5781 5786 5793
5772 5765 5759 5752 5746 5738 5729 5721 5712 5701 5689 5677 5666 5656 5648 5642 5636 5635 5639 5643 5646 5651 5656 5656 5659 5663 5668 5675 5681 5685 5692 5699 5710 5717 5724 5728 5733 5739 5747 5755 5762 5767 5772 5779 5785
5766 5758 5750 5744 5736 5728 5718 5707 5694 5680 5665 5650 5636 5623 5615 5608 5604 5604 5608 5611 5617 5624 5630 5635 5639 5645 5650 5657 5664 5673 5677 5684 5694 5703 5710 5716 5720 5726 5738 5744 5752 5758 5764 5771 5776
5759 5751 5743 5735 5727 5717 5705 5690 5676 5657 5637 5620 5607 5596 5588 5582 5577 5576 5579 5582 5585 5591 5602 5611 5617 5621 5632 5636 5646 5655 5659 5667 5679 5687 5694 5701 5706 5716 5728 5734 5742 5749 5756 5761 5767
5753 5744 5735 5725 5714 5703 5689 5672 5653 5630 5611 5596 5587 5580 5572 5565 5559 5556 5556 5559 5560 5566 5574 5583 5591 5599 5609 5616 5626 5637 5641 5652 5668 5673 5679 5685 5700 5708 5716 5723 5731 5740 5746 5751 5757
5746 5737 5727 5715 5701 5687 5671 5651 5632 5611 5596 5583 5574 5565 5558 5551 5546 5541 5538 5541 5540 5543 5550 5559 5565 5577 5588 5596 5603 5613 5628 5641 5652 5659 5663 5674 5688 5697 5702 5711 5719 5728 5736 5740 5746
5738 5728 5717 5705 5689 5671 5652 5632 5613 5597 5584 5575 5565 5557 5550 5543 5536 5531 5526 5522 5524 5525 5528 5536 5544 5555 5565 5571 5581 5605 5617 5620 5629 5644 5650 5663 5672 5685 5689 5698 5707 5716 5725 5731 5737
5729 5718 5707 5694 5677 5659 5638 5620 5603 5591 5582 5570 5558 5548 5540 5533 5525 5520 5515 5512 5509 5508 5512 5515 5525 5534 5553 5557 5575 5579 5591 5600 5613 5631 5637 5650 5658 5670 5673 5682 5693 5703 5713 5721 5729
5721 5709 5697 5682 5664 5645 5627 5608 5594 5582 5572 5562 5552 5541 5530 5522 5519 5513 5505 5501 5496 5493 5494 5500 5504 5509 5521 5537 5549 5557 5570 5581 5594 5613 5624 5634 5644 5651 5659 5668 5679 5689 5700 5711 5719
5713 5700 5686 5670 5652 5634 5618 5601 5586 5577 5568 5558 5548 5538 5529 5518 5508 5503 5499 5491 5485 5480 5478 5480 5484 5492 5503 5517 5528 5539 5550 5565 5578 5592 5608 5619 5624 5634 5647 5657 5667 5677 5688 5698 5707
5707 5693 5678 5662 5646 5627 5609 5592 5581 5571 5563 5554 5544 5532 5522 5511 5501 5493 5487 5481 5474 5470 5464 5463 5467 5474 5484 5499 5509 5524 5538 5549 5560 5570 5592 5601 5610 5617 5635 5645 5654 5664 5674 5685 5695
5699 5685 5670 5654 5637 5620 5602 5587 5576 5566 5558 5548 5537 5526 5513 5503 5493 5485 5479 5473 5464 5459 5454 5449 5452 5458 5469 5479 5489 5507 5525 5539 5547 5554 5570 5583 5593 5604 5621 5630 5641 5652 5661 5672 5682
5693 5678 5661 5644 5629 5613 5596 5583 5571 5563 5552 5545 5532 5521 5512 5501 5490 5480 5471 5465 5458 5449 5443 5439 5438 5444 5454 5464 5476 5492 5510 5525 5533 5541 5544 5567 5582 5590 5605 5620 5628 5640 5650 5660 5670
5688 5675 5659 5644 5628 5610 5593 5580 5569 5560 5550 5540 5528 5516 5504 5493 5483 5473 5464 5457 5451 5446 5436 5431 5431 5433 5442 5453 5466 5477 5493 5506 5516 5521 5529 5551 5562 5575 5589 5606 5617 5627 5638 5648 5659
5682 5668 5654 5639 5622 5605 5589 5576 5566 5556 5546 5536 5524 5511 5498 5486 5478 5465 5459 5450 5444 5437 5430 5426 5427 5427 5432 5444 5458 5467 5476 5482 5494 5509 5520 5538 5540 5556 5571 5589 5603 5614 5625 5636 5647
5677 5664 5649 5632 5616 5601 5587 5574 5561 5551 5541 5530 5519 5505 5494 5481 5470 5460 5452 5444 5438 5434 5428 5423 5422 5423 5426 5435 5449 5456 5464 5473 5488 5504 5512 5517 5530 5545 5557 5574 5588 5600 5611 5622 5633
5675 5661 5646 5631 5615 5600 5584 5572 5559 5548 5537 5524 5511 5499 5485 5474 5465 5456 5447 5443 5435 5429 5424 5420 5420 5421 5423 5429 5437 5446 5457 5468 5474 5488 5501 5504 5517 5529 5544 5558 5574 5586 5597 5609 5620
5672 5658 5643 5628 5612 5596 5583 5568 5555 5544 5532 5520 5507 5494 5481 5468 5459 5451 5446 5439 5434 5428 5422 5418 5418 5420 5421 5424 5429 5438 5446 5457 5467 5478 5490 5496 5502 5518 5532 5544 5559 5572 5585 5596 5606
5670 5656 5640 5625 5611 5595 5579 5563 5552 5540 5529 5516 5504 5490 5476 5463 5455 5446 5441 5436 5432 5427 5422 5418 5416 5417 5420 5422 5426 5430 5438 5447 5457 5468 5477 5486 5492 5505 5520 5532 5544 5558 5571 5583 5593
5668 5654 5639 5624 5609 5592 5576 5561 5550 5539 5527 5515 5501 5488 5473 5459 5450 5442 5438 5434 5430 5426 5422 5417 5415 5416 5418 5421 5423 5426 5431 5441 5450 5457 5467 5479 5486 5497 5507 5518 5530 5543 5556 5568 5579
5665 5651 5637 5621 5606 5591 5575 5562 5549 5536 5526 5514 5501 5487 5472 5458 5447 5440 5435 5432 5428 5425 5421 5417 5415 5415 5417 5419 5420 5423 5426 5433 5443 5451 5459 5466 5478 5488 5499 5507 5516 5527 5541 5552 5564
5662 5648 5633 5619 5604 5590 5574 5560 5548 5538 5524 5511 5497 5483 5468 5455 5445 5438 5433 5429 5427 5424 5421 5417 5415 5414 5415 5416 5418 5420 5423 5427 5434 5442 5451 5461 5468 5477 5487 5497 5506 5515 5526 5538 5550
5660 5646 5631 5616 5602 5588 5575 5561 5548 5536 5525 5513 5499 5484 5468 5453 5442 5436 5432 5428 5426 5423 5420 5417 5415 5413 5413 5414 5416 5418 5420 5423 5427 5435 5443 5452 5458 5468 5477 5485 5493 5504 5513 5524 5534
5658 5644 5630 5615 5601 5588 5574 5560 5546 5534 5523 5512 5499 5485 5470 5456 5442 5435 5430 5427 5425 5422 5419 5417 5415 5413 5412 5412 5413 5416 5418 5420 5422 5425 5436 5443 5451 5455 5466 5475 5483 5492 5501 5511 5520